SCO16NO EGPH-KMCO

Flight info

Callsign SCO16NO
Flight time N/A
Altitude 36000
Route GOSAM DCT TRN DCT NIPIT DCT REVNU DCT PIKIL/M083F360 DCT 57N020W 57N030W 57N040W 56N050W DCT JANJO/N0489F380 N706B TOPPS DCT HTO DCT SPDEY Q167 CAANO/N0485F400 Q167 ZJAAY DCT ORF DCT TYI DCT FAY DCT CHS DCT IGARY Q85 LPERD SNFLD3
Aircraft B77W/H-SDE1E2E3FGHIJ2J3J4J5M1RWXY/LB1D1

Departure

Time 2026-05-04 05:35
Airport Edinburgh Airport (EGPH)

Arrival

Time N/A
Airport Orlando International Airport (KMCO)
Time Latitude Longitude Altitude Speed Heading
2026-05-04 05:09 55.94838 -3.36672 117 ft 0 kts 89°
2026-05-04 05:29 55.94838 -3.36685 117 ft 3 kts 89°
2026-05-04 05:29 55.94837 -3.36717 115 ft 3 kts 81°
2026-05-04 05:29 55.94832 -3.36750 112 ft 3 kts 63°
2026-05-04 05:29 55.94822 -3.36777 112 ft 3 kts 46°
2026-05-04 05:31 55.94801 -3.36805 112 ft 0 kts 20°
2026-05-04 05:32 55.94822 -3.36799 112 ft 12 kts
2026-05-04 05:32 55.94932 -3.36817 114 ft 12 kts 10°
2026-05-04 05:33 55.95161 -3.36207 112 ft 46 kts 59°
2026-05-04 05:33 55.95317 -3.35736 112 ft 45 kts 59°
2026-05-04 05:33 55.95432 -3.35424 115 ft 14 kts 41°
2026-05-04 05:33 55.95483 -3.35420 116 ft 0 kts 334°
2026-05-04 05:34 55.95508 -3.35448 114 ft 15 kts 328°
2026-05-04 05:34 55.95556 -3.35598 115 ft 17 kts 258°
2026-05-04 05:34 55.95445 -3.35937 112 ft 62 kts 239°
2026-05-04 05:35 55.95015 -3.37204 114 ft 172 kts 238°
2026-05-04 05:35 55.94296 -3.39336 823 ft 210 kts 239°
2026-05-04 05:35 55.93560 -3.41567 1926 ft 209 kts 240°
2026-05-04 05:35 55.92792 -3.43886 2582 ft 227 kts 240°
2026-05-04 05:36 55.91978 -3.46379 3584 ft 232 kts 241°
2026-05-04 05:36 55.91205 -3.48819 4986 ft 219 kts 243°
2026-05-04 05:36 55.90494 -3.51159 6215 ft 214 kts 244°
2026-05-04 05:36 55.89800 -3.53576 6984 ft 225 kts 245°
2026-05-04 05:37 55.89112 -3.56139 7617 ft 239 kts 247°
2026-05-04 05:37 55.88437 -3.58870 8502 ft 241 kts 249°
2026-05-04 05:37 55.87821 -3.61626 9490 ft 238 kts 251°
2026-05-04 05:38 55.86763 -3.67324 10858 ft 250 kts 256°
2026-05-04 05:38 55.86324 -3.70362 11536 ft 255 kts 259°
2026-05-04 05:38 55.86147 -3.73660 11317 ft 280 kts 275°
2026-05-04 05:38 55.86224 -3.77151 11112 ft 283 kts 270°
2026-05-04 05:39 55.86186 -3.80634 10850 ft 280 kts 274°
2026-05-04 05:39 55.86350 -3.87588 10380 ft 284 kts 270°
2026-05-04 05:39 55.86237 -3.91093 10212 ft 283 kts 266°
2026-05-04 05:40 55.85724 -3.97945 10166 ft 275 kts 262°
2026-05-04 05:40 55.85394 -4.01385 10658 ft 290 kts 261°
2026-05-04 05:40 55.85032 -4.05017 11201 ft 306 kts 261°
2026-05-04 05:41 55.84638 -4.08829 11735 ft 319 kts 258°
2026-05-04 05:41 55.83678 -4.12443 12245 ft 335 kts 231°
2026-05-04 05:41 55.81885 -4.15188 12813 ft 344 kts 219°
2026-05-04 05:41 55.80046 -4.18013 13379 ft 355 kts 226°
2026-05-04 05:42 55.78297 -4.21202 13925 ft 364 kts 226°
2026-05-04 05:42 55.76302 -4.24090 14429 ft 377 kts 217°
2026-05-04 05:42 55.74091 -4.26731 14936 ft 388 kts 215°
2026-05-04 05:42 55.71795 -4.29352 15452 ft 397 kts 214°
2026-05-04 05:43 55.69455 -4.32046 15969 ft 405 kts 215°
2026-05-04 05:43 55.67083 -4.34839 16505 ft 413 kts 216°
2026-05-04 05:43 55.64688 -4.37715 17020 ft 419 kts 216°
2026-05-04 05:45 55.47401 -4.58865 20905 ft 431 kts 216°
2026-05-04 05:45 55.44974 -4.61818 22023 ft 417 kts 216°
2026-05-04 05:47 55.31063 -4.79517 27782 ft 295 kts 247°
2026-05-04 05:47 55.30222 -4.82847 27312 ft 308 kts 254°
2026-05-04 05:47 55.29438 -4.86492 26916 ft 328 kts 254°
2026-05-04 05:48 55.28629 -4.90301 26902 ft 336 kts 253°
2026-05-04 05:48 55.27810 -4.94120 27304 ft 333 kts 253°
2026-05-04 05:48 55.27001 -4.97864 27662 ft 333 kts 253°
2026-05-04 05:48 55.26174 -5.01664 28044 ft 333 kts 253°
2026-05-04 05:49 55.25346 -5.05443 28440 ft 332 kts 254°
2026-05-04 05:49 55.24518 -5.09208 28819 ft 331 kts 254°
2026-05-04 05:49 55.23687 -5.12977 29092 ft 333 kts 254°
2026-05-04 05:49 55.22846 -5.16783 29275 ft 338 kts 254°
2026-05-04 05:51 55.16530 -5.45059 31694 ft 365 kts 253°
2026-05-04 05:51 55.15597 -5.49195 32067 ft 366 kts 253°
2026-05-04 05:52 55.14660 -5.53344 32372 ft 369 kts 253°
2026-05-04 05:52 55.14021 -5.56173 32541 ft 372 kts 253°
2026-05-04 05:52 55.13065 -5.60401 32768 ft 376 kts 253°
2026-05-04 05:52 55.12110 -5.64614 33038 ft 380 kts 253°
2026-05-04 05:53 55.11130 -5.68921 33313 ft 383 kts 253°
2026-05-04 05:54 55.04055 -5.99764 34992 ft 399 kts 252°
2026-05-04 05:55 55.03003 -6.04325 34507 ft 414 kts 252°
2026-05-04 05:55 55.01901 -6.09109 33800 ft 436 kts 252°
2026-05-04 05:55 55.00742 -6.14133 33100 ft 457 kts 252°
2026-05-04 05:55 54.99538 -6.19309 33043 ft 461 kts 252°
2026-05-04 05:56 54.98339 -6.24413 33597 ft 450 kts 252°
2026-05-04 05:56 54.97161 -6.29409 34075 ft 443 kts 252°
2026-05-04 05:56 54.95999 -6.34337 34332 ft 439 kts 252°
2026-05-04 05:56 54.94843 -6.39245 34431 ft 439 kts 252°
2026-05-04 05:57 54.93680 -6.44192 34328 ft 445 kts 252°
2026-05-04 05:57 54.92501 -6.49201 34231 ft 450 kts 252°
2026-05-04 05:57 54.91323 -6.54216 34362 ft 448 kts 252°
2026-05-04 05:57 54.90183 -6.59237 34537 ft 445 kts 253°
2026-05-04 05:58 54.89095 -6.64221 34830 ft 437 kts 253°
2026-05-04 05:58 54.88042 -6.69145 35040 ft 433 kts 253°
2026-05-04 05:58 54.85947 -6.78920 35006 ft 435 kts 253°
2026-05-04 05:59 54.83831 -6.88667 35510 ft 419 kts 252°
2026-05-04 05:59 54.82753 -6.93311 35699 ft 416 kts 249°
2026-05-04 05:59 54.81487 -6.97896 35344 ft 428 kts 246°
2026-05-04 06:00 54.80120 -7.02597 34721 ft 447 kts 247°
2026-05-04 06:00 54.78727 -7.07534 34172 ft 463 kts 248°
2026-05-04 06:00 54.76085 -7.17584 34594 ft 455 kts 250°
2026-05-04 06:01 54.74836 -7.22578 34915 ft 448 kts 250°
2026-05-04 06:01 54.73623 -7.27509 35189 ft 443 kts 250°
2026-05-04 06:03 54.65111 -7.62106 34982 ft 452 kts 250°
2026-05-04 06:03 54.64430 -7.64833 35191 ft 447 kts 250°
2026-05-04 06:05 54.56691 -7.95652 35424 ft 442 kts 250°
2026-05-04 06:05 54.54224 -8.05400 35198 ft 449 kts 250°
2026-05-04 06:05 54.52965 -8.10366 34827 ft 459 kts 250°
2026-05-04 06:06 54.51676 -8.15433 34808 ft 461 kts 250°
2026-05-04 06:06 54.50388 -8.20474 34909 ft 461 kts 249°
2026-05-04 06:06 54.49092 -8.25538 34955 ft 463 kts 249°
2026-05-04 06:07 54.46480 -8.35723 34898 ft 470 kts 249°
2026-05-04 06:07 54.45388 -8.41008 34803 ft 467 kts 263°
2026-05-04 06:07 54.45073 -8.46506 34826 ft 459 kts 277°
2026-05-04 06:08 54.45636 -8.57430 34288 ft 466 kts 277°
2026-05-04 06:08 54.45753 -8.63028 33465 ft 472 kts 275°
2026-05-04 06:08 54.45803 -8.68697 32624 ft 476 kts 275°
2026-05-04 06:08 54.45833 -8.74385 31938 ft 477 kts 275°
2026-05-04 06:09 54.45864 -8.80100 31265 ft 478 kts 275°
2026-05-04 06:09 54.45906 -8.85804 30640 ft 478 kts 275°
2026-05-04 06:11 54.46202 -9.15641 29997 ft 471 kts 275°